Location: Vancouver
(49.2500°N, 123.1330°W)
Time: 19:11:19
(UTC-07:00)

Oscar 11 - Visible Passes

Search period start: 21 September 2014 00:00
Search period end: 01 October 2014 00:00
Orbit: 618 x 629 km, 97.8° (Epoch: 21 September)

Date Brightness Start Highest point End Pass type
(mag) Time Alt. Az. Time Alt. Az. Time Alt. Az.
21 Sep 8.8 20:41:32 16° ENE 20:41:55 17° ENE 20:44:40 10° NNE visible
21 Sep 8.0 22:18:47 47° NW 22:18:47 47° NW 22:22:00 10° NNW visible
22 Sep 8.4 21:00:18 23° ENE 21:00:18 23° ENE 21:03:37 10° N visible
22 Sep 8.7 22:37:33 33° NW 22:37:33 33° NW 22:40:20 10° NNW visible
23 Sep 8.1 21:19:04 31° NE 21:19:04 31° NE 21:22:22 10° N visible
23 Sep 9.3 22:56:19 23° WNW 22:56:19 23° WNW 22:58:31 10° NNW visible
24 Sep 7.9 21:37:50 39° NNE 21:37:50 39° NNE 21:40:59 10° N visible
24 Sep 9.8 23:15:05 16° WNW 23:15:05 16° WNW 23:16:32 10° NW visible
25 Sep 9.2 20:19:20 11° ENE 20:19:44 11° NE 20:20:50 10° NE visible
25 Sep 8.1 21:56:36 41° N 21:56:36 41° N 21:59:31 10° N visible
25 Sep 10.2 23:33:51 11° WNW 23:33:51 11° WNW 23:34:10 10° NW visible
26 Sep 8.9 20:38:06 15° NE 20:38:06 15° NE 20:40:27 10° NNE visible
26 Sep 8.5 22:15:21 35° NNW 22:15:21 35° NNW 22:17:57 10° NNW visible
27 Sep 8.7 20:56:52 21° NE 20:56:52 21° NE 20:59:27 10° NNE visible
27 Sep 9.1 22:34:07 27° NW 22:34:07 27° NW 22:36:17 10° NNW visible
28 Sep 8.5 21:15:37 26° NE 21:15:37 26° NE 21:18:13 10° N visible
28 Sep 9.6 22:52:52 20° NW 22:52:52 20° NW 22:54:30 10° NNW visible
29 Sep 8.4 21:34:23 30° NNE 21:34:23 30° NNE 21:36:52 10° N visible
29 Sep 10.0 23:11:38 14° NW 23:11:38 14° NW 23:12:33 10° NW visible
30 Sep 8.6 21:53:08 30° N 21:53:08 30° N 21:55:24 10° N visible
